Location: Bieujac
(44.5398°N, 0.1549°W)
Time: 06:31:40
(UTC+00:00)

Cosmos 1125 Rocket - Pass Details

Date: 17 November 2019
Orbit: 758 x 779 km, 74.0° (Epoch: 15 December)

Event Time Altitude Azimuth Distance (km) Brightness Sun altitude
Rises 05:41:05 0° 188° (S) 3,242 6.8 -13.9°
Reaches altitude 10° 05:43:29 10° 185° (S) 2,317 6.1 -13.5°
Maximum altitude 05:48:39 60° 106° (ESE) 886 4.2 -12.6°
Drops below altitude 10° 05:53:50 10° 28° (NNE) 2,321 6.2 -11.7°
Sets 05:56:14 0° 25° (NNE) 3,249 6.9 -11.3°
